Skip Page Navigation
NASA JPL Caltech
NASA Logo - Jet Propulsion Laboratory + View the NASA Portal
+ Center for Near-Earth Object Studies
JPL Home Earth Solar System Stars & Galaxies Technology
JPL Solar System Dynamics
BODIES ORBITS EPHEMERIDES TOOLS PHYSICAL DATA DISCOVERY FAQ SITE MAP
JPL Small-Body Database Browser
Search: [ help ]  
21878 (1999 UF13)
Classification: Main-belt Asteroid          SPK-ID: 2021878
Ephemeris | Orbit Diagram | Orbital Elements | Mission Design | Physical Parameters | Discovery Circumstances | Close-Approach Data ]

[ show orbit diagram ]
Orbital Elements at Epoch 2459396.5 (2021-Jul-01.0) TDB
Reference: JPL 42 (heliocentric ecliptic J2000)
 Element Value Uncertainty (1-sigma)   Units 
e .04421072134585255 3.2203e-08  
a 2.99615187497586 1.5692e-08 au
q 2.863689839321448 1.0215e-07 au
i 10.02135191346932 3.8235e-06 deg
node 209.2843008589203 1.8418e-05 deg
peri 286.6270516813611 4.7298e-05 deg
M 305.6535665553894 4.4836e-05 deg
tp 2459682.464886966574
(2022-Apr-12.96488697)
0.00023644 TDB
period 1894.279951468933
5.19
1.4881e-05
4.074e-08
d
yr
n .1900458270282782 1.493e-09 deg/d
Q 3.128613910630271 1.6385e-08 au
  Orbit Determination Parameters
   # obs. used (total)      2471  
   data-arc span      15051 days (41.21 yr)  
   first obs. used      1979-12-18  
   last obs. used      2021-03-03  
   planetary ephem.      DE441  
   SB-pert. ephem.      SB441-N16  
   condition code      0  
   norm. resid. RMS      .46561  
   source      ORB  
   producer      Otto Matic  
   solution date      2021-Jul-08 18:37:18  

Additional Information
 Earth MOID = 1.89619 au 
 Jupiter MOID = 1.90882 au 
 T_jup = 3.230 
[ show covariance matrix ]

Ephemeris | Orbit Diagram | Orbital Elements | Mission Design | Physical Parameters | Discovery Circumstances | Close-Approach Data ]

Physical Parameter Table
Parameter Symbol Value Units Sigma Reference Notes
absolute magnitude H 12.87   n/a MPCxxxxx  

21878 (1999 UF13)          Discovered 1999-Oct-29 by CSS at Catalina
Reference: 20010208/Numbers.arcLast Updated: 2004-04-19

[ show close-approach data ]
Alternate Designations
 1999 UF13 = 1979 YT4 = 1998 MH45 
Ephemeris | Orbit Diagram | Orbital Elements | Mission Design | Physical Parameters | Discovery Circumstances | Close-Approach Data ]
ABOUT SSD CREDITS/AWARDS PRIVACY/COPYRIGHT GLOSSARY LINKS
FirstGov 2021-Aug-01 05:56 UT
(server date/time)  
NASA Home Page
Site Manager:   Ryan S. Park
Webmaster  Alan B. Chamberlin